Regional Weather Roundup
Issued by NWS Portland, ME

Current Version | Previous Version | Text Only | Print | Product List | Glossary Off
Versions: 1 2 3 4 5 6 7 8 9 10 11 12 13 14 15 16 17 18 19 20 21 22 23 24 25 26 27 28 29 30 31 32 33 34 35 36 37 38 39 40 41 42 43 44 45 46 47 48 49 50
000 ASUS41 KGYX 172010 RWRGYX WEATHER ROUNDUP FOR MAINE AND NEW HAMPSHIRE NATIONAL WEATHER SERVICE GRAY ME 400 PM EDT SUN JUN 17 2018 MEZ002-005-006-010-012-015-018-020-021-024-026-027-029-172100- MAINE CITY SKY/WX TMP DP RH WIND PRES REMARKS PORTLAND FAIR 63 54 72 E10 30.10S SANFORD FAIR 71 53 52 SE6 30.09R BAR HARBOR FAIR 63 42 46 E7 30.13F WISCASSET FAIR 67 55 65 SE8 30.12R ROCKLAND FAIR 59 49 69 E15 30.14R FRYEBURG FAIR 85 57 38 SE13G24 30.04S LEWISTONAUBURN FAIR 76 54 46 S13 30.06F AUGUSTA FAIR 78 57 48 SE12 30.07R WATERVILLE FAIR 78 59 51 VRB6 30.03S BANGOR PTSUNNY 71 49 45 S14 30.09R GREENVILLE N/A 74 56 53 SE12 30.05F MILLINOCKET FAIR 74 56 53 VRB5 30.06F HOULTON PTSUNNY 70 51 51 S8 30.05F PRESQUE ISLE PTSUNNY 69 52 54 S14 30.05F FRENCHVILLE FAIR 63 49 60 SE12 30.03F CARIBOU CLOUDY 68 50 52 S10 30.04F $$ NHZ002-005-008-009-011-012-014-172100- NEW HAMPSHIRE CITY SKY/WX TMP DP RH WIND PRES REMARKS PORTSMOUTH PTSUNNY 68 55 64 SE12 30.07S ROCHESTER FAIR 81 55 40 S10 30.06S NASHUA FAIR 88 48 25 CALM 30.05S MANCHESTER PTSUNNY 85 43 22 VRB3 30.03S CONCORD FAIR 87 47 24 VRB3 30.04S LACONIA FAIR 84 50 30 N8 30.05F PLYMOUTH FAIR 87 48 26 CALM 30.03S BERLIN FAIR 87 48 25 W7 30.05R WHITEFIELD FAIR 87 48 25 W7 30.05S JAFFREY FAIR 86 51 29 N3 30.08S KEENE FAIR 91 48 22 CALM 30.05S LEBANON FAIR 87 53 31 VRB3 30.04S MT WASHINGTON PTSUNNY 64 45 48 W9G17 N/A $$ VTZ005-007-008-172100- VERMONT CITY SKY/WX TMP DP RH WIND PRES REMARKS ST JOHNSBURY N/A 85 47 26 MISG 30.01F MONTPELIER FAIR 83 49 30 NW8 30.10R BURLINGTON PTSUNNY 86 50 28 S12 30.01F $$ MAZ007-012-024-CTZ003-RIZ002-NYZ038-NYZ072-172100- SOUTHERN NEW ENGLAND AND NY CITY SKY/WX TMP DP RH WIND PRES REMARKS BOSTON PTSUNNY 68 57 68 E10 30.08R WORCESTER FAIR 83 53 35 NW6 30.09S NANTUCKET FAIR 70 58 65 SW7 30.10R PROVIDENCE FAIR 81 57 43 SE14 30.07R HARTFORD PTSUNNY 90 52 27 VRB6 30.03F ALBANY PTSUNNY 88 47 24 N8 30.05R NEW YORK CITY PTSUNNY 90 48 23 S15 30.04S $$ ANZ081-ANZ082-ANZ150-NHZ014-MEZ023>029-172100- COASTAL MARINE OBSERVATIONS STATION/POSITION TIME TEMP WIND PRES WAVE AIR SEA DIR/SP/G HT/PER (UTC) (F) (DEG/KT/KT) (MB) (FT/S) MOUNT DESERT ROC 2000 53 90/ 13/ 14 1020.5F MATINICUS ROCK 2000 54 90/ 15/ 15 1019.4F ISLE OF SHOALS 2000 58 90/ 8/ 9 1018.3F JEFFREYS LEDGE 1936 61 N/A 1/ 6 $$ .............KEY.............. WCI - WIND CHILL TC - TEMPERATURE IN CELSIUS VSB - VISIBILITY IN MILES HX - HEAT INDEX FAIR- INDICATES FEW OR NO CLOUDS BELOW 12,000 FT, WITH NO SIGNIFICANT WEATHER AND/OR OBSTRUCTIONS TO VISIBILITY.

USA.gov is the U.S. government's official web portal to all federal, state and local government web resources and services.